Theta_e
318 311 312 308 300 295 292 295 298 298 298 302 307 309 309 309 306 298 325 331 335 339 343 345 346 347 347 346 345 345 346 346 348 348 346 343 341 340 339 340 342 340 338 340 339 337 337 336 336
311 310 309 301 295 290 291 294 296 299 303 309 307 309 308 308 320 319 325 330 337 340 342 343 344 347 347 347 345 345 345 346 348 347 345 343 340 339 338 339 342 340 340 342 339 337 335 335 334
311 306 304 296 290 291 291 294 298 300 307 303 307 310 311 313 320 323 327 332 338 340 342 343 345 348 347 346 345 344 344 345 348 346 344 341 339 338 337 338 341 338 339 340 338 336 334 335 336
307 306 300 294 293 294 295 296 298 301 302 303 308 307 315 322 322 325 330 334 337 339 342 343 346 346 345 344 342 343 342 344 346 345 342 340 337 337 336 338 337 336 337 338 336 335 335 336 335
303 301 295 292 294 295 295 298 299 299 300 304 305 305 314 323 326 328 330 334 336 339 341 345 343 344 344 343 342 342 342 343 345 343 341 339 336 336 335 336 336 334 336 336 337 336 336 337 337
300 298 293 291 292 295 298 298 299 299 299 303 306 310 316 324 325 328 331 333 337 338 341 344 338 340 341 342 342 342 342 343 344 343 340 337 336 335 335 335 334 333 334 338 337 337 337 337 336
299 295 292 291 291 295 298 298 298 298 299 301 310 307 312 321 327 329 330 333 336 338 340 343 343 339 336 338 338 340 341 341 343 342 340 338 337 336 335 336 335 333 335 338 338 337 336 336 335
298 296 292 290 291 293 296 298 298 299 299 306 310 303 310 321 327 328 329 331 334 337 338 340 342 341 341 340 332 334 336 338 338 337 334 332 333 333 332 331 334 333 334 333 336 334 334 333 332
299 293 290 291 291 294 295 297 297 299 300 302 307 307 312 324 327 327 327 328 331 334 336 338 339 340 339 339 333 330 331 332 332 331 327 327 331 330 329 327 332 333 332 333 334 332 330 329 328
295 292 293 294 294 294 295 296 297 298 298 299 301 308 317 324 325 324 324 324 327 329 333 336 337 338 338 337 335 335 333 334 333 331 329 328 327 327 327 325 327 330 329 332 331 328 323 321 324
294 292 294 294 295 296 296 295 297 296 296 299 300 303 317 322 323 324 324 326 327 329 331 333 335 336 337 336 335 334 332 331 330 329 327 324 323 325 327 328 328 329 322 328 325 321 321 320 321
293 293 294 297 296 296 295 295 294 296 299 299 299 306 317 320 322 323 324 326 327 328 329 331 333 333 335 336 334 334 331 329 327 327 325 323 321 323 324 325 325 325 323 321 320 320 319 318 318
293 293 295 296 295 295 296 294 295 295 297 297 299 310 317 321 322 324 326 326 328 327 328 329 332 333 334 334 333 334 332 329 327 325 324 322 320 320 322 323 323 323 320 318 317 317 318 317 317
293 294 295 295 294 294 293 292 294 295 295 296 300 305 312 319 321 320 322 322 324 328 328 330 331 332 333 333 333 333 333 332 327 325 324 322 321 319 320 320 321 320 320 316 316 316 316 316 316
293 291 291 293 293 293 293 290 292 295 293 295 296 300 305 313 318 320 324 324 324 326 328 328 331 331 332 331 332 332 333 332 330 326 324 322 321 319 319 318 319 318 318 316 314 312 312 312 311
289 288 287 289 293 293 290 286 289 293 293 294 294 295 296 304 313 317 320 322 323 324 325 328 330 330 331 331 331 331 331 332 332 328 325 323 322 319 317 316 317 317 316 315 313 311 309 309 308
287 283 283 286 292 291 289 287 291 293 293 293 294 294 293 295 298 308 316 320 322 323 325 326 329 329 330 331 331 331 331 330 331 330 326 324 323 321 318 317 317 316 314 313 312 311 309 308 310
283 282 283 283 288 289 287 289 291 293 292 293 293 293 293 294 296 298 304 314 319 321 323 326 327 329 330 330 330 329 329 329 330 330 329 326 325 322 322 319 317 315 313 313 311 309 308 308 309
284 283 283 285 289 289 287 288 290 292 292 293 293 293 293 293 296 297 297 300 311 317 320 323 324 327 328 328 327 326 325 327 328 328 329 327 326 323 321 320 319 315 313 313 313 311 304 304 302
285 284 284 287 289 288 286 288 290 291 291 292 293 293 292 292 293 294 295 296 299 309 317 320 323 325 327 329 329 329 329 329 329 327 327 329 328 325 322 321 319 317 317 312 310 307 303 305 300
283 284 284 285 286 285 283 284 285 287 288 289 290 290 291 291 292 295 295 296 296 297 307 316 321 324 326 328 327 320 322 321 322 323 326 327 329 329 326 323 323 319 317 316 312 310 309 305 298
283 287 286 286 283 280 284 279 284 286 287 289 291 292 292 293 294 294 296 298 298 297 296 307 315 319 324 326 325 325 325 324 326 326 326 326 326 329 328 326 323 320 318 317 315 312 311 309 302
284 288 286 284 283 282 282 280 284 283 284 288 290 291 292 293 294 295 295 297 298 299 299 298 307 314 319 324 326 324 325 325 321 320 320 320 319 324 327 327 325 322 320 319 318 312 310 310 310
289 286 284 284 282 277 281 279 280 283 284 287 288 291 293 294 294 295 296 297 298 299 302 305 307 311 316 320 320 321 321 319 316 315 316 316 316 316 318 322 324 324 321 319 318 315 311 311 309
285 283 278 277 276 276 279 279 282 285 286 287 289 292 292 293 294 295 295 296 296 297 299 303 307 309 313 316 317 317 318 317 316 316 315 313 313 312 314 315 319 321 321 320 318 316 313 310 310
284 283 279 274 273 276 280 278 283 286 289 288 292 291 293 293 294 294 295 295 295 296 297 298 299 300 303 307 309 310 312 313 314 313 313 312 311 312 312 312 313 317 319 320 318 317 313 312 310
285 281 284 277 267 274 278 281 285 288 289 290 291 292 292 292 293 293 294 294 294 295 295 296 297 297 298 299 300 300 301 303 304 305 306 307 307 306 307 307 307 308 310 314 316 315 313 310 309
285 287 281 278 270 270 274 276 279 286 288 289 290 291 292 293 293 294 294 294 294 294 295 296 296 296 296 297 297 297 298 299 300 300 301 301 302 303 303 303 304 305 305 306 309 311 313 311 310
284 283 282 282 280 274 271 276 282 286 289 289 290 291 292 292 293 294 294 294 295 295 295 295 295 295 295 295 296 296 297 297 298 298 298 299 299 299 300 300 301 301 302 303 303 305 308 308 308
284 284 284 279 276 275 276 278 286 289 289 290 290 291 291 292 292 293 294 294 294 294 294 294 294 294 293 294 294 294 294 295 295 295 296 296 297 297 297 297 298 298 299 300 300 301 302 303 303
Wind_Speed
4 3 3 6 5 5 2 3 0 3 2 2 4 5 4 2 3 2 2 6 12 12 10 10 12 11 11 9 11 10 9 9 13 17 17 15 15 15 15 14 14 13 14 16 17 17 17 17 18
3 2 5 3 5 3 3 2 4 4 2 5 4 2 2 2 1 4 9 5 13 11 9 9 10 12 12 11 11 10 9 8 13 17 17 15 14 15 14 14 13 15 14 15 17 16 16 15 16
3 6 4 5 3 3 3 4 4 2 6 2 3 3 3 4 1 10 1 12 12 10 8 9 9 12 13 12 12 10 9 9 13 16 16 15 14 14 13 12 12 14 13 15 16 14 15 16 15
5 5 4 4 2 2 3 2 4 5 2 1 2 4 1 3 6 6 11 14 12 10 8 10 11 12 12 12 12 11 11 10 13 15 15 14 13 13 12 11 11 11 11 13 14 14 15 14 14
5 3 4 3 0 1 2 2 6 5 3 1 1 3 2 1 2 9 15 14 14 10 8 9 11 12 12 12 12 11 11 11 12 14 14 13 12 12 12 11 12 11 10 12 15 15 14 11 16
4 3 4 2 1 2 1 5 6 3 4 1 3 3 2 0 6 10 14 13 12 11 9 8 10 11 10 11 10 10 10 10 12 13 13 12 12 11 11 10 11 10 9 10 13 12 12 15 17
6 4 3 4 2 2 3 5 5 5 5 3 6 4 2 2 5 10 12 11 11 10 9 8 9 10 9 9 10 9 10 9 9 12 11 11 10 10 10 8 11 10 9 12 12 12 13 14 16
6 5 4 1 3 2 5 4 1 4 4 3 2 4 4 4 10 8 8 9 9 9 9 9 9 9 9 8 8 8 10 9 10 11 11 10 9 10 9 6 9 10 9 10 11 12 12 12 11
4 5 3 6 6 3 3 4 0 1 5 2 5 4 2 9 14 10 7 6 6 6 8 8 9 9 8 8 7 8 9 9 9 9 9 8 5 6 6 4 8 9 9 10 10 11 12 12 10
5 4 8 6 4 4 5 3 6 3 2 2 1 1 4 10 14 14 12 11 12 12 9 9 9 9 8 6 7 7 6 5 6 7 7 5 6 5 5 5 8 9 8 8 9 9 9 6 4
3 5 5 3 2 5 7 2 4 7 3 7 7 6 7 8 12 13 13 13 14 13 10 11 10 10 10 7 6 4 4 4 4 7 6 6 5 4 4 3 3 4 6 4 5 4 3 4 3
5 2 4 3 4 4 6 6 3 5 6 1 6 6 8 12 14 15 14 13 14 13 13 12 12 10 11 6 6 6 5 5 5 6 7 6 4 5 4 4 4 4 3 4 3 3 3 4 4
4 3 4 4 6 5 5 2 2 6 5 1 2 7 11 12 12 9 9 9 12 13 12 12 12 11 10 7 6 6 6 6 6 6 7 6 6 6 5 4 4 4 4 4 4 3 3 3 4
3 5 4 4 3 3 3 1 1 1 4 4 5 5 7 10 10 4 7 11 12 12 12 11 13 12 11 8 8 6 6 7 6 6 7 8 6 6 6 5 5 4 4 4 3 4 4 3 4
6 6 2 4 1 2 1 3 7 3 3 2 5 3 6 8 6 13 13 12 12 9 10 12 14 14 13 11 8 6 6 6 7 6 8 9 8 8 7 6 6 5 5 5 4 2 2 3 3
5 6 4 1 2 2 3 8 3 4 3 5 6 5 7 7 12 9 8 9 9 9 12 12 10 13 14 12 9 8 8 7 6 6 7 10 10 8 6 5 5 5 5 4 5 5 4 3 3
6 4 4 1 0 2 2 6 2 1 5 4 6 6 6 7 9 11 12 11 11 12 12 12 13 14 14 12 10 9 10 8 6 6 6 11 12 11 8 7 6 6 5 6 6 5 3 4 5
7 5 1 3 2 2 1 9 8 6 4 8 8 7 7 8 13 6 9 10 9 10 11 12 11 12 13 9 8 7 6 6 6 6 7 10 10 11 10 8 8 7 5 6 6 6 5 3 6
7 5 5 1 1 2 4 7 11 7 5 10 8 8 7 9 8 7 6 7 9 10 12 13 13 14 11 9 9 7 8 7 6 6 9 10 10 11 10 6 7 8 9 10 10 6 5 6 3
5 6 3 2 2 3 1 10 11 7 7 4 5 8 7 6 7 8 7 5 8 9 11 11 13 12 12 10 10 7 7 6 7 6 8 12 12 12 11 11 9 9 8 8 9 8 3 4 7
2 7 5 4 2 3 3 7 6 3 3 5 4 4 4 5 7 7 6 4 3 6 7 10 11 11 11 10 5 3 3 2 3 4 7 9 11 12 12 12 11 10 9 9 10 11 12 8 6
5 4 7 7 5 3 3 5 6 3 7 5 6 6 5 6 6 6 6 6 5 3 5 7 6 7 8 9 9 13 10 9 8 8 6 6 9 10 10 11 12 11 8 10 10 10 10 8 7
3 5 6 4 5 4 3 3 9 3 2 3 4 5 5 5 5 7 7 6 5 5 4 1 4 4 5 9 9 8 8 5 1 1 4 5 5 9 9 8 9 9 9 11 11 9 12 10 9
11 8 9 5 3 1 1 5 7 3 3 2 3 4 6 6 6 6 6 7 6 7 7 5 5 3 3 4 5 7 7 4 2 2 4 4 4 4 8 9 8 7 9 10 10 11 13 12 11
4 6 3 3 3 6 2 3 9 3 2 2 2 5 5 5 6 7 8 9 10 11 10 8 8 7 5 3 2 1 2 3 5 4 4 3 4 3 6 7 8 7 6 8 9 9 11 11 11
7 6 7 9 5 2 2 6 7 2 5 2 4 5 6 7 6 7 7 7 8 8 9 9 9 8 7 6 5 3 2 1 3 3 3 3 4 4 4 5 6 9 9 7 7 8 8 10 10
6 5 5 10 3 4 4 7 6 3 5 5 5 5 7 6 6 7 6 7 7 8 8 8 8 8 8 7 5 5 4 4 3 4 3 3 4 3 5 5 7 7 9 10 11 8 9 9 10
4 9 5 4 4 3 4 5 6 5 5 5 6 7 6 5 8 7 8 8 7 8 6 9 9 9 6 6 6 4 5 5 4 3 4 4 4 4 5 6 6 8 8 8 9 10 11 11 9
3 3 6 6 4 7 3 8 6 9 8 11 8 6 7 7 7 7 7 7 7 7 9 9 10 11 10 9 6 7 6 6 5 4 4 5 4 4 5 5 7 8 8 8 8 10 11 13 12
1 6 6 7 6 1 4 6 1 5 7 7 7 7 6 7 6 6 6 7 8 9 9 9 9 10 8 7 6 6 6 6 6 6 6 5 6 5 6 5 6 7 8 8 9 11 10 12 13
Wind_Direction
45 27 64 43 59 62 142 226 347 129 192 163 113 139 178 90 162 186 355 167 146 144 150 152 136 133 122 120 112 104 104 106 116 109 103 94 92 92 94 92 88 87 95 93 93 91 90 92 98
28 39 46 78 85 73 269 253 185 190 124 129 96 95 96 104 115 104 128 196 154 149 148 149 140 132 121 114 105 106 110 111 116 108 103 98 94 95 97 99 95 83 85 98 91 92 96 95 97
85 45 75 85 106 150 199 216 147 91 131 322 101 45 128 147 60 154 183 152 150 146 144 139 129 120 115 115 108 106 96 97 106 107 101 96 96 96 102 104 96 87 85 95 93 91 98 99 99
47 18 46 81 171 205 184 164 132 111 270 261 113 77 41 297 161 179 146 147 148 147 143 137 125 121 120 119 118 113 121 109 107 109 105 102 101 106 107 110 103 95 92 99 96 98 104 107 104
40 58 65 86 354 274 238 150 134 128 119 318 81 176 54 66 114 142 149 151 153 151 150 143 134 130 132 129 129 130 126 120 110 110 107 109 110 112 112 111 100 101 103 115 112 113 120 108 95
55 99 74 171 233 283 128 154 130 130 126 167 81 119 154 174 141 151 151 155 157 153 153 152 142 136 139 136 135 133 128 124 118 118 117 119 120 121 119 118 107 100 107 114 115 127 126 101 99
117 90 163 146 162 44 152 150 153 156 133 207 152 122 278 192 161 152 149 148 154 155 155 157 153 147 140 141 138 138 132 128 117 125 118 111 118 118 117 120 118 109 108 93 102 90 88 93 108
107 95 107 218 166 185 165 155 143 138 213 83 170 175 188 181 147 130 140 151 157 160 162 162 157 156 152 156 143 143 136 133 122 114 113 116 113 111 111 111 121 115 110 117 105 102 97 98 104
129 68 150 182 166 197 137 158 290 87 115 246 189 152 79 125 133 130 144 152 161 173 174 166 164 165 159 159 156 151 141 136 120 116 110 104 115 112 112 122 112 109 113 117 112 105 102 99 97
90 108 206 180 191 174 168 198 157 112 81 233 215 115 94 139 153 160 170 179 187 189 186 178 173 172 162 162 158 160 145 146 137 132 131 123 128 132 127 114 101 116 127 122 118 108 98 93 100
146 162 171 175 157 132 152 148 160 124 225 220 204 175 158 161 170 174 182 185 191 193 192 189 181 179 173 170 165 163 156 149 147 145 145 142 137 136 133 126 116 112 91 107 112 111 102 110 119
95 78 147 132 108 121 154 121 188 183 210 182 240 159 162 174 184 184 185 184 188 193 199 194 189 185 185 170 176 172 170 166 166 165 160 153 151 152 153 156 151 143 146 142 139 133 126 120 122
99 145 79 88 88 86 126 102 252 251 238 165 92 155 179 188 195 196 186 177 184 194 196 196 186 192 192 179 179 175 182 183 177 171 173 166 168 169 168 167 166 166 162 164 161 159 155 144 141
113 99 106 59 76 70 120 112 350 255 322 188 165 201 192 199 198 168 189 190 191 195 193 186 190 195 197 196 189 183 180 183 184 184 184 182 179 178 180 175 182 185 186 178 182 183 181 183 183
123 85 68 40 15 73 93 286 232 257 360 255 240 214 224 213 185 212 209 211 195 197 190 187 190 192 195 196 197 195 188 176 189 195 190 191 188 187 184 189 195 196 195 180 175 183 187 194 213
75 61 121 310 133 352 99 264 272 355 206 264 260 255 250 239 219 222 211 210 197 192 191 185 187 194 198 197 196 201 200 190 185 182 191 200 198 188 182 192 207 187 185 185 193 185 190 201 214
18 163 177 171 211 110 125 257 286 18 20 309 285 280 269 267 258 235 219 213 201 199 195 193 188 191 198 205 205 206 208 208 198 188 185 200 204 194 184 197 207 177 185 195 196 207 194 203 217
172 144 164 195 199 80 143 262 283 278 276 269 277 274 280 275 257 255 232 221 212 206 200 196 191 196 189 191 200 206 207 207 201 199 199 201 207 203 203 198 190 175 184 201 199 200 200 214 219
133 117 132 185 3 150 235 271 275 280 261 280 271 279 271 268 279 267 256 231 206 203 198 197 190 192 181 190 196 207 208 209 207 208 201 198 207 204 202 210 211 189 195 205 207 200 184 210 166
114 119 132 82 71 130 38 281 267 268 250 246 282 289 289 290 307 304 300 250 213 210 209 201 206 191 193 196 205 207 198 212 213 201 212 216 205 203 199 203 204 203 212 200 193 187 183 215 181
98 146 169 142 123 74 333 298 317 322 341 334 351 307 327 297 319 334 340 337 227 229 208 206 208 199 197 193 164 108 98 94 166 202 217 221 216 210 207 209 211 206 202 212 205 199 202 215 197
158 166 123 122 92 198 5 276 302 317 327 41 22 26 19 13 0 357 12 24 11 331 226 216 192 192 188 174 180 203 210 219 220 225 214 212 219 220 211 214 212 208 206 216 217 203 209 206 208
164 113 110 95 95 84 341 70 271 357 95 76 23 12 12 355 360 360 7 6 12 9 17 215 201 191 172 185 192 197 209 224 150 192 195 212 213 230 231 226 221 214 210 220 214 202 208 208 220
150 82 53 51 86 66 205 148 277 242 186 150 358 3 9 7 16 26 24 20 20 20 36 56 102 111 161 176 178 188 204 191 185 213 237 231 233 235 238 243 243 229 219 221 218 211 209 214 219
85 94 44 6 351 209 18 125 243 258 289 268 306 38 26 39 47 45 38 37 33 30 28 39 53 54 52 74 82 176 228 212 226 233 246 248 254 239 247 236 245 245 235 225 219 217 217 214 220
182 154 157 187 193 202 63 226 250 203 337 270 62 100 82 63 56 56 48 49 51 45 37 45 54 55 46 53 41 30 4 303 289 284 276 268 270 273 283 266 255 252 254 251 236 236 224 227 226
191 193 157 104 21 66 217 287 321 55 86 85 100 101 89 77 69 66 53 53 53 49 45 46 55 51 42 43 41 32 21 6 335 317 293 281 280 271 278 265 263 256 250 249 251 240 240 223 225
163 159 81 8 125 228 279 279 233 169 153 137 134 121 102 93 74 57 46 48 50 57 45 54 53 58 46 46 38 36 28 17 360 344 335 316 300 291 292 286 277 275 262 252 247 251 247 238 236
137 158 63 113 134 159 172 254 213 180 174 158 167 145 112 91 74 64 55 45 49 51 46 46 43 40 32 29 28 32 27 26 25 19 353 337 313 305 283 274 276 271 271 267 259 260 259 256 255
132 170 155 141 210 213 141 270 339 165 156 148 152 134 113 96 83 69 63 56 50 47 45 44 36 36 23 11 19 30 21 15 10 2 350 336 324 319 301 300 284 276 269 260 254 259 255 254 254